DW7888 Weather Reports


Display with metric or nautical units.
time (UTC)temp
F
wind
direction
speed
MPH
gust
MPH
rain 1hr
in
rain 24hr
in
rain mn
in
humidity
%
barometer
mb
20260905043507 71 351 0.0 0.0 0.00 0.20 0.00 95 1013.8
20260905043023 71 351 0.0 0.0 0.00 0.20 0.00 95 1013.9
20260905042518 71 351 0.0 0.0 0.00 0.20 0.00 95 1013.9
20260905042010 72 351 0.0 0.0 0.00 0.20 0.00 95 1013.9
20260905041526 72 351 0.0 0.0 0.00 0.20 0.00 95 1013.9
20260905041018 72 351 0.0 0.0 0.00 0.20 0.00 95 1013.9
20260905040509 72 351 0.0 0.0 0.00 0.20 0.00 95 1014.1
20260905040030 72 351 0.0 0.0 0.00 0.20 0.00 95 1014.0
20260905035519 72 351 0.0 0.0 0.00 0.20 0.20 95 1014.1
20260905035011 72 351 0.0 0.0 0.00 0.20 0.20 95 1014.0
20260905034529 72 351 0.0 0.0 0.00 0.20 0.20 95 1014.0
20260905034015 72 351 0.0 0.0 0.00 0.20 0.20 95 1014.1
20260905033508 72 351 0.0 0.0 0.00 0.20 0.20 95 1014.1
20260905033023 72 351 0.0 2.0 0.00 0.20 0.20 95 1014.1
20260905032518 72 351 0.0 2.0 0.00 0.20 0.20 95 1014.1
20260905032010 72 351 0.0 2.0 0.00 0.20 0.20 95 1014.1
20260905031524 72 46 0.0 2.0 0.00 0.20 0.20 95 1014.0
20260905031016 72 67 0.0 2.0 0.00 0.20 0.20 95 1014.0
20260905030511 72 63 0.0 4.0 0.00 0.20 0.20 95 1013.8
20260905030029 72 280 0.0 4.0 0.00 0.20 0.20 95 1013.7
20260905025518 73 67 0.0 2.0 0.00 0.20 0.20 95 1013.6
20260905025013 73 187 0.0 2.0 0.00 0.20 0.20 95 1013.6
20260905024527 73 73 0.0 0.0 0.00 0.20 0.20 96 1013.8
20260905024020 72 96 0.0 0.0 0.00 0.20 0.20 95 1013.9
20260905023511 72 11 0.0 0.0 0.00 0.20 0.20 95 1014.0
20260905023034 72 11 0.0 0.0 0.00 0.20 0.20 95 1014.1
20260905022512 72 11 0.0 0.0 0.00 0.20 0.20 95 1014.1
20260905022015 72 345 0.0 0.0 0.00 0.20 0.20 95 1014.4
20260905021535 72 345 0.0 0.0 0.00 0.20 0.20 95 1014.3
20260905021010 72 345 0.0 0.0 0.00 0.20 0.20 95 1014.3
20260905020513 72 345 0.0 0.0 0.00 0.20 0.20 95 1014.2
20260905020030 72 345 0.0 0.0 0.00 0.20 0.20 95 1014.3
20260905015507 72 61 0.0 0.0 0.00 0.20 0.20 95 1014.2
20260905015013 72 346 0.0 0.0 0.00 0.20 0.20 95 1014.1
20260905014535 72 306 0.0 0.0 0.00 0.20 0.20 95 1014.2
20260905014012 72 306 0.0 0.0 0.00 0.20 0.20 95 1014.2
20260905013519 73 177 0.0 0.0 0.00 0.20 0.20 95 1014.2
20260905013030 73 177 0.0 0.0 0.00 0.20 0.20 95 1014.1
20260905012511 73 177 0.0 0.0 0.00 0.20 0.20 95 1014.0
20260905012017 73 177 0.0 0.0 0.00 0.20 0.20 95 1014.0
20260905011531 73 177 0.0 0.0 0.00 0.20 0.20 95 1013.9
20260905011010 72 177 0.0 0.0 0.00 0.20 0.20 95 1013.6
20260905010516 73 177 0.0 0.0 0.00 0.20 0.20 95 1013.3
20260905010033 72 177 0.0 0.0 0.00 0.20 0.20 95 1013.1
20260905005509 73 177 0.0 0.0 0.00 0.20 0.20 95 1013.0
20260905005016 73 177 0.0 0.0 0.00 0.20 0.20 95 1013.0
20260905004510 73 177 0.0 2.0 0.00 0.20 0.20 95 1013.0
20260905004012 73 177 0.0 2.0 0.00 0.20 0.20 95 1012.8
20260905003503 73 57 0.0 1.0 0.00 0.20 0.20 94 1013.1
20260905003016 73 57 0.0 1.0 0.00 0.20 0.20 94 1013.3
20260905002510 73 57 0.0 2.0 0.01 0.20 0.20 94 1012.7
20260905002003 73 57 0.0 2.0 0.01 0.20 0.20 94 1012.7
20260905001509 73 344 0.0 1.0 0.01 0.20 0.20 94 1012.6
20260905001014 73 344 0.0 1.0 0.01 0.20 0.20 94 1012.0
20260905000503 73 344 0.0 1.0 0.01 0.20 0.20 94 1011.9
20260905000026 73 344 0.0 2.0 0.02 0.20 0.20 94 1011.9
20260904235518 73 344 0.0 3.0 0.11 0.20 0.20 94 1012.2
20260904235003 73 360 0.0 3.0 0.11 0.20 0.20 93 1012.3
20260904234541 73 345 1.0 7.0 0.11 0.20 0.20 93 1012.2
20260904234019 73 138 0.0 7.0 0.11 0.20 0.20 93 1011.9
20260904233503 73 176 2.0 7.0 0.11 0.20 0.20 93 1012.2
20260904233015 73 149 0.0 5.0 0.11 0.20 0.20 93 1012.9
20260904232514 73 153 2.0 5.0 0.10 0.19 0.19 93 1013.4
20260904232006 73 166 0.0 2.0 0.10 0.19 0.19 93 1014.1
20260904231516 74 171 0.0 3.0 0.10 0.19 0.19 93 1014.4
20260904231014 74 176 0.0 3.0 0.10 0.19 0.19 93 1015.0
20260904230504 74 171 0.0 3.0 0.10 0.19 0.19 93 1015.2
20260904230021 75 202 0.0 2.0 0.09 0.18 0.18 93 1015.2
20260904225520 74 157 0.0 0.0 0.06 0.09 0.09 93 1014.7
20260904225003 75 157 0.0 0.0 0.09 0.09 0.09 93 1014.4
20260904224525 75 157 0.0 0.0 0.09 0.09 0.09 93 1014.2
20260904224016 75 157 0.0 0.0 0.09 0.09 0.09 93 1014.0
20260904223506 74 223 0.0 0.0 0.09 0.09 0.09 92 1014.8
20260904223017 74 269 0.0 0.0 0.09 0.09 0.09 91 1014.9
20260904222516 74 338 0.0 1.0 0.09 0.09 0.09 90 1014.6
20260904222006 75 134 0.0 6.0 0.09 0.09 0.09 90 1014.1
20260904221521 75 42 0.0 6.0 0.09 0.09 0.09 89 1014.3
20260904221014 75 38 1.0 9.0 0.09 0.09 0.09 88 1014.3
20260904220506 76 205 0.0 9.0 0.09 0.09 0.09 86 1014.4
20260904220030 77 348 3.0 14.0 0.09 0.09 0.09 84 1014.1
20260904215516 79 317 2.0 14.0 0.03 0.03 0.03 80 1014.2
20260904215007 80 278 5.0 14.0 0.00 0.00 0.00 74 1015.1
20260904214534 82 309 3.0 11.0 0.00 0.00 0.00 70 1014.1
20260904214016 83 312 3.0 14.0 0.00 0.00 0.00 66 1013.4
20260904213507 85 5 4.0 14.0 0.00 0.00 0.00 65 1013.2
20260904213024 86 335 5.0 15.0 0.00 0.00 0.00 64 1012.7
20260904212519 89 12 5.0 15.0 0.00 0.00 0.00 64 1012.7
20260904212007 91 344 0.0 0.0 0.00 0.00 0.00 69 1012.4
20260904211532 91 102 0.0 0.0 0.00 0.00 0.00 68 1012.0
20260904211003 91 102 0.0 0.0 0.00 0.00 0.00 67 1011.9
20260904210508 91 102 0.0 0.0 0.00 0.00 0.00 67 1011.8
20260904210033 91 102 0.0 0.0 0.00 0.00 0.00 67 1012.0
20260904205506 91 102 0.0 0.0 0.00 0.00 0.00 66 1011.9
20260904205010 92 102 0.0 0.0 0.00 0.00 0.00 64 1011.9
20260904204526 92 102 0.0 0.0 0.00 0.00 0.00 64 1011.9
20260904204003 93 102 0.0 0.0 0.00 0.00 0.00 64 1011.9
20260904203519 93 102 0.0 0.0 0.00 0.00 0.00 62 1011.7
20260904203042 93 102 0.0 0.0 0.00 0.00 0.00 65 1011.8
20260904202504 93 102 0.0 0.0 0.00 0.00 0.00 63 1011.7
20260904202012 93 41 0.0 0.0 0.00 0.00 0.00 62 1011.8
20260904201526 93 41 0.0 0.0 0.00 0.00 0.00 62 1011.7
20260904201009 93 41 0.0 0.0 0.00 0.00 0.00 62 1011.9
20260904200509 93 41 0.0 0.0 0.00 0.00 0.00 59 1012.0
20260904200028 94 41 0.0 0.0 0.00 0.00 0.00 59 1012.2
20260904195508 94 41 0.0 0.0 0.00 0.00 0.00 57 1012.2
20260904195011 94 41 0.0 2.0 0.00 0.00 0.00 55 1012.4
20260904194530 95 323 0.0 2.0 0.00 0.00 0.00 54 1012.5
20260904194007 95 12 0.0 2.0 0.00 0.00 0.00 54 1012.6
20260904193513 95 115 0.0 1.0 0.00 0.00 0.00 53 1012.5
20260904193032 96 9 0.0 3.0 0.00 0.00 0.00 55 1012.5
20260904192507 96 319 0.0 4.0 0.00 0.00 0.00 53 1012.7
20260904192012 96 14 2.0 4.0 0.00 0.00 0.00 51 1012.7
20260904191542 96 346 1.0 6.0 0.00 0.00 0.00 52 1012.8
20260904191010 97 113 1.0 6.0 0.00 0.00 0.00 50 1012.9
20260904190514 98 13 0.0 4.0 0.00 0.00 0.00 54 1012.9
20260904190045 97 329 1.0 4.0 0.00 0.00 0.00 53 1013.0
20260904185509 96 177 1.0 5.0 0.00 0.00 0.00 56 1013.1
20260904185013 95 282 1.0 5.0 0.00 0.00 0.00 55 1013.2
20260904184536 96 39 1.0 4.0 0.00 0.00 0.00 54 1013.4
20260904184013 96 355 1.0 5.0 0.00 0.00 0.00 54 1013.5
20260904183512 96 130 1.0 5.0 0.00 0.00 0.00 55 1013.5
20260904183033 95 5 1.0 4.0 0.00 0.00 0.00 55 1013.6
20260904182511 95 355 1.0 6.0 0.00 0.00 0.00 54 1013.7
20260904182023 95 336 2.0 6.0 0.00 0.00 0.00 54 1013.7
20260904181530 95 332 2.0 7.0 0.00 0.00 0.00 54 1013.8
20260904181012 95 325 2.0 7.0 0.00 0.00 0.00 54 1013.8
20260904180514 95 68 0.0 3.0 0.00 0.00 0.00 54 1014.0
20260904180033 96 125 0.0 5.0 0.00 0.00 0.00 53 1014.1
20260904175512 96 40 1.0 5.0 0.00 0.00 0.00 57 1014.1
20260904175013 95 319 0.0 4.0 0.00 0.00 0.00 54 1014.2
20260904174537 95 355 1.0 5.0 0.00 0.00 0.00 55 1014.3
20260904174014 95 327 1.0 5.0 0.00 0.00 0.00 55 1014.3
20260904173514 96 319 1.0 5.0 0.00 0.00 0.00 55 1014.4
20260904173040 96 5 1.0 5.0 0.00 0.00 0.00 55 1014.4
20260904172512 94 31 0.0 5.0 0.00 0.00 0.00 58 1014.4
20260904172014 94 324 1.0 4.0 0.00 0.00 0.00 58 1014.4
20260904171532 94 327 1.0 5.0 0.00 0.00 0.00 57 1014.4
20260904171012 94 44 1.0 6.0 0.00 0.00 0.00 57 1014.4
20260904170513 93 331 2.0 6.0 0.00 0.00 0.00 59 1014.4
20260904170044 95 48 1.0 5.0 0.00 0.00 0.00 56 1014.4
20260904165514 94 305 2.0 5.0 0.00 0.00 0.00 59 1014.3
20260904165019 94 13 1.0 5.0 0.00 0.00 0.00 56 1014.3
20260904164535 93 346 1.0 8.0 0.00 0.00 0.00 58 1014.4
20260904164015 93 37 1.0 8.0 0.00 0.00 0.00 58 1014.4
20260904163515 94 336 1.0 6.0 0.00 0.00 0.00 57 1014.5
20260904163032 94 352 1.0 6.0 0.00 0.00 0.00 58 1014.5
20260904162517 95 35 1.0 3.0 0.00 0.00 0.00 58 1014.6
20260904162014 93 181 1.0 3.0 0.00 0.00 0.00 60 1014.7
20260904161535 94 339 1.0 6.0 0.00 0.00 0.00 58 1014.7
20260904161013 93 347 1.0 6.0 0.00 0.00 0.00 61 1014.7
20260904160519 92 59 1.0 5.0 0.00 0.00 0.00 61 1014.9
20260904160033 92 69 2.0 9.0 0.00 0.00 0.00 61 1014.9
20260904155513 92 333 2.0 9.0 0.00 0.00 0.00 61 1015.1
20260904155017 92 58 2.0 6.0 0.00 0.00 0.00 62 1015.0
20260904154503 92 11 1.0 6.0 0.00 0.00 0.00 61 1015.0
20260904154002 92 5 1.0 9.0 0.00 0.00 0.00 61 1015.0
20260904153503 92 330 3.0 9.0 0.00 0.00 0.00 61 1015.1
20260904153005 92 5 2.0 5.0 0.00 0.00 0.00 62 1015.1
20260904152504 91 344 2.0 5.0 0.00 0.00 0.00 62 1015.1
20260904152002 91 57 2.0 4.0 0.00 0.00 0.00 64 1015.0
20260904151504 91 332 1.0 6.0 0.00 0.00 0.00 65 1015.0
20260904151003 91 17 2.0 6.0 0.00 0.00 0.00 65 1014.9
20260904150502 91 31 2.0 5.0 0.00 0.00 0.00 65 1014.9
20260904150014 91 5 2.0 5.0 0.00 0.00 0.00 67 1014.9
20260904145503 91 5 1.0 6.0 0.00 0.00 0.00 67 1014.9
20260904145004 90 343 0.0 6.0 0.00 0.00 0.00 68 1014.8
20260904144503 90 9 1.0 5.0 0.00 0.00 0.00 69 1014.9
20260904144007 90 331 2.0 5.0 0.00 0.00 0.00 68 1014.8
20260904143509 89 162 0.0 3.0 0.00 0.00 0.00 70 1014.7
20260904143009 88 360 0.0 3.0 0.00 0.00 0.00 71 1014.8
20260904142504 88 5 1.0 4.0 0.00 0.00 0.00 71 1014.7
20260904142004 87 16 1.0 4.0 0.00 0.00 0.00 72 1014.6
20260904141506 87 12 0.0 3.0 0.00 0.00 0.00 73 1014.6
20260904141006 87 28 0.0 6.0 0.00 0.00 0.00 72 1014.7
20260904140503 87 88 0.0 6.0 0.00 0.00 0.00 73 1014.6
20260904140004 86 101 0.0 3.0 0.00 0.00 0.00 73 1014.6
20260904135503 86 83 0.0 3.0 0.00 0.00 0.00 75 1014.6
20260904135005 85 18 1.0 3.0 0.00 0.00 0.00 76 1014.4
20260904134505 85 87 0.0 3.0 0.00 0.00 0.00 76 1014.4
20260904134001 84 348 2.0 3.0 0.00 0.00 0.00 76 1014.4
20260904133502 84 11 1.0 4.0 0.00 0.00 0.00 77 1014.4
20260904133009 84 360 1.0 4.0 0.00 0.00 0.00 77 1014.4
20260904132508 83 319 2.0 4.0 0.00 0.00 0.00 77 1014.3
20260904132007 83 21 0.0 3.0 0.00 0.00 0.00 78 1014.4
20260904131507 83 21 0.0 3.0 0.00 0.00 0.00 79 1014.4
20260904131003 83 18 0.0 3.0 0.00 0.00 0.00 79 1014.5
20260904130506 82 151 0.0 4.0 0.00 0.00 0.00 80 1014.5
20260904130008 82 5 0.0 4.0 0.00 0.00 0.00 80 1014.6
20260904125504 82 355 1.0 4.0 0.00 0.00 0.00 81 1014.7
20260904125005 81 5 0.0 3.0 0.00 0.00 0.00 81 1014.6
20260904124509 81 26 0.0 3.0 0.00 0.00 0.00 81 1014.7
20260904124007 81 41 0.0 3.0 0.00 0.00 0.00 81 1014.6
20260904123506 81 194 0.0 3.0 0.00 0.00 0.00 83 1014.6
20260904123007 80 186 1.0 3.0 0.00 0.00 0.00 83 1014.7
20260904122508 80 84 0.0 3.0 0.00 0.00 0.00 83 1014.7
20260904122006 80 13 0.0 2.0 0.00 0.00 0.00 83 1014.9
20260904121509 79 349 0.0 2.0 0.00 0.00 0.00 84 1014.9
20260904121006 79 355 0.0 0.0 0.00 0.00 0.00 85 1014.8
20260904120507 78 56 0.0 2.0 0.00 0.00 0.00 86 1014.7
20260904120012 78 101 0.0 3.0 0.00 0.00 0.00 88 1014.7
20260904115508 77 116 0.0 3.0 0.00 0.00 0.00 89 1014.7
20260904115008 76 50 0.0 2.0 0.00 0.00 0.00 91 1014.6
20260904114515 76 50 0.0 3.0 0.00 0.00 0.00 92 1014.7
20260904114008 75 50 0.0 3.0 0.00 0.00 0.00 93 1014.6
20260904113505 75 5 0.0 0.0 0.00 0.00 0.00 94 1014.6
20260904113022 75 350 0.0 0.0 0.00 0.00 0.00 94 1014.5
20260904112507 75 350 0.0 0.0 0.00 0.00 0.00 94 1014.6
20260904112009 75 350 0.0 0.0 0.00 0.00 0.00 94 1014.7
20260904111510 75 350 0.0 0.0 0.00 0.00 0.00 93 1014.6
20260904111008 75 350 0.0 0.0 0.00 0.00 0.00 93 1014.6
20260904110506 75 350 0.0 0.0 0.00 0.00 0.00 93 1014.6
20260904110012 75 350 0.0 0.0 0.00 0.00 0.00 93 1014.6
20260904105510 75 350 0.0 0.0 0.00 0.00 0.00 93 1014.6
20260904105008 75 350 0.0 0.0 0.00 0.00 0.00 93 1014.6
20260904104510 76 350 0.0 0.0 0.00 0.00 0.00 93 1014.6
20260904104010 76 350 0.0 0.0 0.00 0.00 0.00 92 1014.5
20260904103509 76 350 0.0 0.0 0.00 0.00 0.00 92 1014.4
20260904103012 76 350 0.0 0.0 0.00 0.00 0.00 92 1014.4
20260904102507 76 350 0.0 0.0 0.00 0.00 0.00 92 1014.4
20260904102008 76 350 0.0 0.0 0.00 0.00 0.00 92 1014.3
20260904101512 76 350 0.0 0.0 0.00 0.00 0.00 92 1014.4
20260904101007 76 350 0.0 0.0 0.00 0.00 0.00 92 1014.4
20260904100507 76 350 0.0 0.0 0.00 0.00 0.00 92 1014.4
20260904100014 76 350 0.0 0.0 0.00 0.00 0.00 92 1014.4
20260904095509 76 350 0.0 0.0 0.00 0.00 0.00 92 1014.4
20260904095012 76 350 0.0 0.0 0.00 0.00 0.00 92 1014.3
20260904094525 76 350 0.0 0.0 0.00 0.00 0.00 92 1014.5
20260904094011 76 350 0.0 0.0 0.00 0.00 0.00 91 1014.4
20260904093509 76 350 0.0 0.0 0.00 0.00 0.00 91 1014.5
20260904093013 76 350 0.0 0.0 0.00 0.00 0.00 91 1014.6
20260904092510 77 350 0.0 0.0 0.00 0.00 0.00 91 1014.6
20260904092010 77 350 0.0 0.0 0.00 0.00 0.00 90 1014.7
20260904091516 77 350 0.0 0.0 0.00 0.00 0.00 90 1014.7
20260904091013 77 350 0.0 0.0 0.00 0.00 0.00 90 1014.9
20260904090509 77 350 0.0 0.0 0.00 0.00 0.00 90 1014.8
20260904090017 77 350 0.0 0.0 0.00 0.00 0.00 89 1014.7
20260904085515 78 350 0.0 0.0 0.00 0.00 0.00 89 1014.7
20260904085009 78 350 0.0 0.0 0.00 0.00 0.00 89 1014.6
20260904084518 78 350 0.0 0.0 0.00 0.00 0.00 88 1014.6
20260904084012 78 350 0.0 3.0 0.00 0.00 0.00 88 1014.5
20260904083512 78 350 0.0 3.0 0.00 0.00 0.00 87 1014.5
20260904083018 78 348 0.0 3.0 0.00 0.00 0.00 87 1014.4
20260904082512 78 306 0.0 2.0 0.00 0.00 0.00 88 1014.3
20260904082010 78 120 0.0 2.0 0.00 0.00 0.00 87 1014.2
20260904081519 78 114 0.0 0.0 0.00 0.00 0.00 87 1014.2
20260904081012 78 114 0.0 0.0 0.00 0.00 0.00 87 1014.4
20260904080511 78 114 0.0 2.0 0.00 0.00 0.00 87 1014.2
20260904080020 78 114 0.0 2.0 0.00 0.00 0.00 87 1014.3
20260904075515 79 114 0.0 2.0 0.00 0.00 0.00 86 1014.2
20260904075014 79 123 0.0 1.0 0.00 0.00 0.00 87 1014.1
20260904074517 79 123 0.0 1.0 0.00 0.00 0.00 86 1014.0
20260904074017 79 123 0.0 1.0 0.00 0.00 0.00 86 1013.8
20260904073516 79 123 0.0 1.0 0.00 0.00 0.00 86 1013.9
20260904073020 79 156 0.0 0.0 0.00 0.00 0.00 86 1013.9
20260904072511 79 155 0.0 0.0 0.00 0.00 0.00 86 1013.9
20260904072013 79 155 0.0 0.0 0.00 0.00 0.00 86 1013.9
20260904071521 79 156 0.0 0.0 0.00 0.00 0.00 86 1013.9
20260904071015 80 155 0.0 0.0 0.00 0.00 0.00 85 1014.0
20260904070517 80 63 0.0 0.0 0.00 0.00 0.00 85 1014.1
20260904070023 80 63 0.0 0.0 0.00 0.00 0.00 84 1014.1
20260904065518 80 63 0.0 0.0 0.00 0.00 0.00 84 1014.2
20260904065011 81 63 0.0 0.0 0.00 0.00 0.00 83 1014.3
20260904064528 81 63 0.0 1.0 0.00 0.00 0.00 82 1014.1
20260904064003 81 63 0.0 2.0 0.00 0.00 0.00 82 1014.2
20260904063510 81 115 0.0 2.0 0.00 0.00 0.00 81 1013.9
20260904063027 82 136 0.0 2.0 0.00 0.00 0.00 81 1013.9
20260904062506 82 109 0.0 2.0 0.00 0.00 0.00 81 1014.2
20260904062012 82 65 0.0 2.0 0.00 0.00 0.00 80 1014.8
20260904061535 82 5 0.0 3.0 0.00 0.00 0.00 80 1014.8
20260904061008 82 126 0.0 9.0 0.00 0.00 0.00 80 1014.4
20260904060514 82 310 2.0 9.0 0.00 0.00 0.00 80 1015.2
20260904060037 82 293 2.0 5.0 0.00 0.00 0.00 78 1015.3
20260904055506 83 348 0.0 3.0 0.00 0.00 0.00 77 1014.5
20260904055015 83 350 0.0 3.0 0.00 0.00 0.00 77 1014.3
20260904054538 83 5 0.0 2.0 0.00 0.00 0.00 76 1014.2
20260904054006 84 5 0.0 5.0 0.00 0.00 0.00 76 1014.2
20260904053514 84 5 0.0 5.0 0.00 0.00 0.00 75 1014.2
20260904053023 84 355 0.0 5.0 0.00 0.00 0.00 74 1014.1
20260904052510 84 115 0.0 4.0 0.00 0.00 0.00 74 1014.1
20260904052012 84 165 1.0 6.0 0.00 0.00 0.00 74 1014.2
20260904051504 84 58 0.0 6.0 0.00 0.00 0.00 75 1014.2
20260904051014 84 94 0.0 4.0 0.00 0.00 0.00 74 1014.3
20260904050516 84 187 0.0 3.0 0.00 0.00 0.00 74 1014.4
20260904050006 85 97 0.0 3.0 0.00 0.00 0.00 74 1014.5
20260904045511 85 179 1.0 4.0 0.00 0.00 0.00 74 1014.5
20260904045019 85 165 0.0 4.0 0.00 0.00 0.00 74 1014.5
20260904044509 85 169 0.0 5.0 0.00 0.00 0.00 74 1014.5
20260904044008 84 211 1.0 7.0 0.00 0.00 0.00 74 1014.5